Location: Unspecified
(48.2082°N, 0.0000°E)
Time: 15:13:01
(UTC+00:00)

S-56A Canister/Altair - Pass Details

Date: 14 August 2020
Orbit: 633 x 2499 km, 38.9° (Epoch: 23 September)

Event Time Altitude Azimuth Distance (km) Brightness Sun altitude
Exits shadow 04:11:14 - 200° (SSW) 3,161 10.2 -7.1°
Reaches altitude 10° 04:14:01 10° 181° (S) 2,506 9.9 -6.7°
Maximum altitude 04:17:47 17° 141° (SE) 2,310 10.1 -6.2°
Drops below altitude 10° 04:22:23 10° 103° (ESE) 3,198 11.5 -5.5°
Sets 04:26:59 0° 87° (E) 4,572 12.9 -4.8°
